| time (UTC) | temp F | wind direction | speed MPH | gust MPH | rain 1hr in | rain 24hr in | rain mn in | humidity % | barometer mb |
| 20260505014506 | 69 | 87 | 4.0 | 12.0 | 0.00 | 0.00 | 0.00 | 72 | 1029.5 |
| 20260505014005 | 69 | 36 | 7.0 | 13.0 | 0.00 | 0.00 | 0.00 | 70 | 1029.6 |
| 20260505013506 | 69 | 61 | 6.0 | 12.0 | 0.00 | 0.00 | 0.00 | 70 | 1029.8 |
| 20260505005507 | 68 | 31 | 3.0 | 9.0 | 0.00 | 0.00 | 0.00 | 73 | 1030.1 |
| 20260505005005 | 68 | 83 | 6.0 | 12.0 | 0.00 | 0.00 | 0.00 | 72 | 1030.2 |
| 20260505004007 | 67 | 50 | 5.0 | 12.0 | 0.00 | 0.00 | 0.00 | 74 | 1030.5 |
| 20260505003505 | 67 | 77 | 5.0 | 9.0 | 0.00 | 0.00 | 0.00 | 75 | 1030.5 |
| 20260505003005 | 66 | 48 | 4.0 | 8.0 | 0.00 | 0.00 | 0.00 | 76 | 1030.6 |
| 20260505002007 | 66 | 73 | 5.0 | 10.0 | 0.00 | 0.00 | 0.00 | 74 | 1030.8 |
| 20260505001005 | 66 | 98 | 5.0 | 12.0 | 0.00 | 0.00 | 0.00 | 75 | 1030.8 |
| 20260505000505 | 66 | 85 | 5.0 | 10.0 | 0.00 | 0.00 | 0.00 | 74 | 1030.9 |
| 20260504235505 | 66 | 77 | 6.0 | 8.0 | 0.00 | 0.00 | 0.00 | 76 | 1030.9 |
| 20260504233506 | 65 | 56 | 4.0 | 10.0 | 0.00 | 0.00 | 0.00 | 75 | 1031.2 |
| 20260504230505 | 64 | 80 | 6.0 | 12.0 | 0.00 | 0.00 | 0.00 | 76 | 1031.6 |
| 20260504225505 | 63 | 35 | 5.0 | 10.0 | 0.00 | 0.00 | 0.00 | 79 | 1031.7 |
| 20260504225005 | 62 | 63 | 6.0 | 13.0 | 0.00 | 0.00 | 0.00 | 81 | 1031.7 |
| 20260504223505 | 61 | 88 | 6.0 | 8.0 | 0.00 | 0.00 | 0.00 | 83 | 1031.8 |
| 20260504223006 | 60 | 94 | 6.0 | 10.0 | 0.00 | 0.00 | 0.00 | 85 | 1031.7 |
| 20260504222505 | 59 | 86 | 6.0 | 9.0 | 0.00 | 0.00 | 0.00 | 85 | 1031.8 |
| 20260504221505 | 58 | 74 | 5.0 | 12.0 | 0.00 | 0.00 | 0.00 | 83 | 1031.9 |
| 20260504221007 | 58 | 60 | 7.0 | 10.0 | 0.00 | 0.00 | 0.00 | 83 | 1031.8 |
| 20260504220006 | 58 | 38 | 5.0 | 7.0 | 0.00 | 0.00 | 0.00 | 83 | 1032.0 |
| 20260504215505 | 58 | 24 | 5.0 | 8.0 | 0.00 | 0.00 | 0.00 | 83 | 1031.8 |
| 20260504214004 | 58 | 37 | 5.0 | 8.0 | 0.00 | 0.00 | 0.00 | 82 | 1031.6 |
| 20260504213505 | 58 | 64 | 3.0 | 6.0 | 0.00 | 0.00 | 0.00 | 83 | 1031.7 |
| 20260504213004 | 57 | 96 | 3.0 | 5.0 | 0.00 | 0.00 | 0.00 | 85 | 1031.7 |
| 20260504212005 | 56 | 65 | 2.0 | 6.0 | 0.00 | 0.00 | 0.00 | 86 | 1031.9 |
| 20260504210005 | 55 | 71 | 4.0 | 7.0 | 0.00 | 0.00 | 0.00 | 87 | 1031.8 |
| 20260504205505 | 55 | 74 | 3.0 | 6.0 | 0.00 | 0.00 | 0.00 | 87 | 1031.8 |
| 20260504204505 | 55 | 78 | 3.0 | 6.0 | 0.00 | 0.00 | 0.00 | 88 | 1031.7 |
| 20260504203505 | 54 | 104 | 2.0 | 6.0 | 0.00 | 0.00 | 0.00 | 88 | 1031.7 |
| 20260504203005 | 54 | 98 | 3.0 | 7.0 | 0.00 | 0.00 | 0.00 | 89 | 1031.6 |
| 20260504202506 | 54 | 89 | 3.0 | 6.0 | 0.00 | 0.00 | 0.00 | 89 | 1031.6 |
| 20260504202005 | 54 | 99 | 3.0 | 5.0 | 0.00 | 0.00 | 0.00 | 89 | 1031.7 |
| 20260504201505 | 53 | 92 | 3.0 | 6.0 | 0.00 | 0.00 | 0.00 | 89 | 1031.7 |
| 20260504201006 | 53 | 86 | 4.0 | 6.0 | 0.00 | 0.00 | 0.00 | 89 | 1031.7 |
| 20260504200505 | 53 | 87 | 3.0 | 5.0 | 0.00 | 0.00 | 0.00 | 89 | 1031.7 |
| 20260504200005 | 53 | 80 | 2.0 | 3.0 | 0.00 | 0.00 | 0.00 | 89 | 1031.7 |
| 20260504195505 | 53 | 102 | 1.0 | 2.0 | 0.00 | 0.00 | 0.00 | 89 | 1031.7 |
| 20260504194005 | 53 | 78 | 2.0 | 5.0 | 0.00 | 0.00 | 0.00 | 89 | 1031.6 |
| 20260504193504 | 52 | 73 | 3.0 | 5.0 | 0.00 | 0.00 | 0.00 | 89 | 1031.8 |
| 20260504193007 | 52 | 58 | 3.0 | 6.0 | 0.00 | 0.00 | 0.00 | 89 | 1031.7 |
| 20260504192506 | 52 | 77 | 3.0 | 5.0 | 0.00 | 0.00 | 0.00 | 89 | 1031.7 |
| 20260504192005 | 52 | 74 | 2.0 | 5.0 | 0.00 | 0.00 | 0.00 | 89 | 1031.7 |
| 20260504191504 | 52 | 61 | 2.0 | 3.0 | 0.00 | 0.00 | 0.00 | 89 | 1031.6 |
| 20260504191004 | 52 | 46 | 1.0 | 3.0 | 0.00 | 0.00 | 0.00 | 89 | 1031.7 |
| 20260504184506 | 52 | 66 | 2.0 | 5.0 | 0.00 | 0.00 | 0.00 | 89 | 1031.5 |
| 20260504184005 | 52 | 67 | 3.0 | 5.0 | 0.00 | 0.00 | 0.00 | 89 | 1031.5 |
| 20260504180006 | 52 | 84 | 4.0 | 7.0 | 0.00 | 0.00 | 0.00 | 89 | 1031.6 |
| 20260504174506 | 52 | 88 | 3.0 | 7.0 | 0.00 | 0.00 | 0.00 | 89 | 1031.5 |
| 20260504173505 | 52 | 72 | 2.0 | 3.0 | 0.00 | 0.00 | 0.00 | 89 | 1031.7 |
| 20260504173006 | 52 | 89 | 3.0 | 5.0 | 0.00 | 0.00 | 0.00 | 88 | 1031.6 |
| 20260504172005 | 52 | 6 | 1.0 | 2.0 | 0.00 | 0.00 | 0.00 | 88 | 1031.5 |
| 20260504171004 | 52 | 40 | 1.0 | 3.0 | 0.00 | 0.00 | 0.00 | 89 | 1031.5 |
| 20260504151006 | 53 | 84 | 2.0 | 3.0 | 0.00 | 0.00 | 0.00 | 85 | 1031.9 |
| 20260504141006 | 54 | 185 | 1.0 | 2.0 | 0.00 | 0.00 | 0.00 | 81 | 1032.4 |
| 20260504130506 | 54 | 58 | 2.0 | 3.0 | 0.00 | 0.00 | 0.00 | 80 | 1032.8 |
| 20260504081005 | 54 | 59 | 1.0 | 2.0 | 0.00 | 0.00 | 0.00 | 81 | 1033.2 |
| 20260504050507 | 60 | 143 | 1.0 | 5.0 | 0.00 | 0.00 | 0.00 | 73 | 1031.7 |
| 20260504045008 | 61 | 141 | 2.0 | 6.0 | 0.00 | 0.00 | 0.00 | 72 | 1032.0 |
| 20260504044007 | 61 | 144 | 3.0 | 5.0 | 0.00 | 0.00 | 0.00 | 71 | 1031.8 |
| 20260504042505 | 61 | 131 | 2.0 | 3.0 | 0.00 | 0.00 | 0.00 | 69 | 1031.9 |
| 20260504042007 | 62 | 48 | 2.0 | 6.0 | 0.00 | 0.00 | 0.00 | 69 | 1031.9 |
| 20260504041505 | 62 | 122 | 3.0 | 6.0 | 0.00 | 0.00 | 0.00 | 68 | 1031.9 |
| 20260504040006 | 63 | 39 | 3.0 | 7.0 | 0.00 | 0.00 | 0.00 | 67 | 1031.9 |
| 20260504035505 | 64 | 155 | 4.0 | 7.0 | 0.00 | 0.00 | 0.00 | 66 | 1032.0 |
| 20260504035007 | 64 | 34 | 3.0 | 6.0 | 0.00 | 0.00 | 0.00 | 66 | 1031.8 |
| 20260504033506 | 63 | 48 | 4.0 | 9.0 | 0.00 | 0.00 | 0.00 | 66 | 1031.9 |
| 20260504033005 | 63 | 137 | 6.0 | 9.0 | 0.00 | 0.00 | 0.00 | 65 | 1031.9 |
| 20260504030505 | 63 | 78 | 3.0 | 8.0 | 0.00 | 0.00 | 0.00 | 67 | 1032.0 |
| 20260504030005 | 63 | 120 | 5.0 | 7.0 | 0.00 | 0.00 | 0.00 | 67 | 1032.0 |
| 20260504024506 | 63 | 41 | 2.0 | 5.0 | 0.00 | 0.00 | 0.00 | 67 | 1032.0 |
| 20260504024005 | 63 | 100 | 4.0 | 7.0 | 0.00 | 0.00 | 0.00 | 66 | 1032.1 |
| 20260504023507 | 64 | 59 | 3.0 | 9.0 | 0.00 | 0.00 | 0.00 | 65 | 1031.9 |
| 20260504023006 | 63 | 106 | 3.0 | 8.0 | 0.00 | 0.00 | 0.00 | 67 | 1032.0 |
| 20260504022505 | 63 | 102 | 3.0 | 9.0 | 0.00 | 0.00 | 0.00 | 65 | 1032.1 |
| 20260504022007 | 63 | 136 | 3.0 | 7.0 | 0.00 | 0.00 | 0.00 | 66 | 1032.1 |
| 20260504021006 | 63 | 84 | 5.0 | 9.0 | 0.00 | 0.00 | 0.00 | 66 | 1031.9 |
| 20260504020506 | 63 | 71 | 4.0 | 7.0 | 0.00 | 0.00 | 0.00 | 65 | 1032.1 |